星链-2427 (STARLINK-2427 )

导读 | 豆包AI

STARLINK-2427是美国太空探索技术公司星链计划中的卫星,于2021年3月11日发射,属于星链星座组网卫星。星链计划旨在构建全球卫星互联网星座,该卫星承担着为全球偏远地区等提供互联网接入服务的任务,运行于近地轨道,是星链大规模组网进程中的组成单元。

Basic Information
目录编号:
47837
目录名称:
STARLINK-2427
国际标识:
2021-018BC
轨道中心:
EARTH
卫星名称:
星链-2427
卫星全名:
星链-2427 (STARLINK-2427 )
卫星状态:
在轨 (已飞行1829 天)
发射日期:
2021-03-11 UTC
国别 :
美国 (US)
星等 :
--
Orbit Information
数据来源 国际轨道数据 AOE轨道数据
星历时间 2026-03-13T17:46:06+0800
1天前
查看轨道信息
2026-03-12T05:00:00+0800
2天前
查看轨道信息
半长轴 6925.351km 6925.33km
偏心率 0.0001218 0.0001406
轨道倾角 53.056° 53.058°
近地点辐角 94.492° 80.335°
升交点赤经 214.931° 221.810°
平近点角 265.621° 247.063°
近地点 546.37km 546.219km
远地点 548.058km 548.167km
周期 95.592分钟 95.592分钟
每日圈数 15.063994 15.064061
Detailed Information
固有亮度:
5
最大亮度:
2.5
卫星平台:
Starlink V1.0
覆盖范围:
全球
运营商:
太空探索技术公司
运营商所在国:
美国
制造商(研发单位):
太空探索技术公司
制造商所在国:
美国
使用方式:
暂无
Satellite Introduction
星链(Starlink)计划是由太空探索技术公司(SpaceX)提出的一个巨型低轨卫星互联网星座项目,计划在2019年至2024年间在太空搭建由约1.2万颗卫星组成的“星链”网络,其中1584颗将部署在地球上空550千米处的近地轨道,并从2020年开始工作。该卫星仍在工作。
2D Orbit Map
3D Orbit Map
Orbit Altitude Analysis Chart
Orbit Inclination Analysis Chart
Orbit Comprehensive Analysis Chart
View Comprehensive Chart